GW5679 Weather Reports


Display with metric or nautical units.
time (UTC)temp
F
wind
direction
speed
MPH
gust
MPH
rain 1hr
in
rain 24hr
in
rain mn
in
humidity
%
barometer
mb
20260901233010 84 20 4.0 8.0 0.00 0.00 0.00 74 1011.5
20260901232505 85 28 4.0 8.0 0.00 0.00 0.00 73 1011.5
20260901232000 85 336 7.0 10.0 0.00 0.00 0.00 73 1011.5
20260901231457 85 52 4.0 8.0 0.00 0.00 0.00 74 1011.5
20260901230953 85 238 7.0 13.0 0.00 0.00 0.00 74 1011.8
20260901230453 85 21 9.0 10.0 0.00 0.00 0.00 74 1012.0
20260901225948 86 23 10.0 11.0 0.00 0.00 0.00 74 1011.8
20260901225447 86 352 6.0 11.0 0.00 0.00 0.00 72 1011.8
20260901224942 87 33 6.0 8.0 0.00 0.00 0.00 68 1011.9
20260901224438 88 78 5.0 7.0 0.00 0.00 0.00 67 1011.8
20260901223934 88 22 7.0 10.0 0.00 0.00 0.00 64 1011.7
20260901223429 89 313 7.0 8.0 0.00 0.00 0.00 62 1011.8
20260901222925 89 358 6.0 8.0 0.00 0.00 0.00 60 1011.8
20260901222422 89 91 3.0 6.0 0.00 0.00 0.00 61 1011.5
20260901221917 89 110 2.0 4.0 0.00 0.00 0.00 61 1011.6
20260901221413 89 75 4.0 4.0 0.00 0.00 0.00 61 1011.6
20260901220908 90 24 3.0 6.0 0.00 0.00 0.00 61 1011.7
20260901220407 90 227 2.0 3.0 0.00 0.00 0.00 61 1011.8
20260901215905 89 1 4.0 8.0 0.00 0.00 0.00 60 1011.8
20260901215405 89 81 2.0 3.0 0.00 0.00 0.00 60 1011.9
20260901214904 89 190 2.0 3.0 0.00 0.00 0.00 61 1012.0
20260901214403 89 86 3.0 6.0 0.00 0.00 0.00 60 1012.2
20260901213902 89 139 3.0 4.0 0.00 0.00 0.00 60 1012.2
20260901213358 89 149 1.0 3.0 0.00 0.00 0.00 60 1012.2
20260901212856 89 84 1.0 2.0 0.00 0.00 0.00 59 1012.3
20260901212352 89 48 2.0 4.0 0.00 0.00 0.00 59 1012.3
20260901211848 89 299 4.0 4.0 0.00 0.00 0.00 59 1012.2
20260901211343 89 168 2.0 2.0 0.00 0.00 0.00 59 1012.3
20260901210839 89 245 2.0 3.0 0.00 0.00 0.00 60 1012.1
20260901210334 88 320 4.0 6.0 0.00 0.00 0.00 60 1012.1
20260901205831 88 359 4.0 4.0 0.00 0.00 0.00 60 1012.0
20260901205331 88 77 3.0 7.0 0.00 0.00 0.00 60 1012.0
20260901204826 88 338 3.0 4.0 0.00 0.00 0.00 61 1012.0
20260901204323 88 301 4.0 4.0 0.00 0.00 0.00 62 1011.8
20260901203822 88 166 2.0 3.0 0.00 0.00 0.00 64 1011.9
20260901203317 88 343 4.0 4.0 0.00 0.00 0.00 64 1012.1
20260901202812 88 126 1.0 2.0 0.00 0.00 0.00 63 1012.0
20260901202307 88 162 0.0 0.0 0.00 0.00 0.00 65 1012.2
20260901201803 87 160 1.0 2.0 0.00 0.00 0.00 64 1012.3
20260901201303 88 337 4.0 6.0 0.00 0.00 0.00 64 1012.4
20260901200801 88 60 1.0 2.0 0.00 0.00 0.00 64 1012.6
20260901200257 88 38 2.0 3.0 0.00 0.00 0.00 63 1012.8
20260901195755 88 98 4.0 7.0 0.00 0.00 0.00 63 1012.9
20260901195249 88 41 2.0 4.0 0.00 0.00 0.00 64 1013.1
20260901194745 88 134 2.0 4.0 0.00 0.00 0.00 64 1013.2
20260901194239 89 12 4.0 6.0 0.00 0.00 0.00 63 1013.3
20260901193736 89 121 3.0 6.0 0.00 0.00 0.00 63 1013.4
20260901193234 89 87 1.0 3.0 0.00 0.00 0.00 62 1013.2
20260901192729 89 333 3.0 7.0 0.00 0.00 0.00 62 1013.1
20260901192225 89 88 3.0 3.0 0.00 0.00 0.00 60 1013.1
20260901191721 89 47 4.0 4.0 0.00 0.00 0.00 61 1013.1
20260901191218 89 165 1.0 2.0 0.00 0.00 0.00 62 1013.2
20260901190712 89 177 1.0 1.0 0.00 0.00 0.00 62 1013.3
20260901190211 89 58 2.0 3.0 0.00 0.00 0.00 62 1013.2
20260901185710 89 143 0.0 1.0 0.00 0.00 0.00 61 1013.3
20260901185208 89 305 3.0 4.0 0.00 0.00 0.00 62 1013.2
20260901184705 88 299 3.0 6.0 0.00 0.00 0.00 61 1013.4
20260901184200 89 123 2.0 3.0 0.00 0.00 0.00 60 1013.4
20260901183656 89 123 2.0 3.0 0.00 0.00 0.00 60 1013.4
20260901183155 89 85 2.0 2.0 0.00 0.00 0.00 60 1013.5
20260901182652 88 137 2.0 2.0 0.00 0.00 0.00 62 1013.5
20260901182150 88 35 4.0 6.0 0.00 0.00 0.00 62 1013.6
20260901181645 88 31 4.0 4.0 0.00 0.00 0.00 64 1013.5
20260901181139 88 56 6.0 8.0 0.00 0.00 0.00 65 1013.7
20260901180634 88 56 6.0 8.0 0.00 0.00 0.00 65 1013.7
20260901180128 88 55 5.0 7.0 0.00 0.00 0.00 65 1013.8
20260901175627 88 14 6.0 8.0 0.00 0.00 0.00 66 1013.9
20260901175122 88 120 5.0 9.0 0.00 0.00 0.00 65 1013.9
20260901174617 89 0 6.0 8.0 0.00 0.00 0.00 63 1014.0
20260901174113 89 313 8.0 10.0 0.00 0.00 0.00 62 1014.2
20260901173613 90 310 4.0 9.0 0.00 0.00 0.00 60 1014.3
20260901173109 89 24 4.0 7.0 0.00 0.00 0.00 63 1014.5
20260901172604 89 41 5.0 10.0 0.00 0.00 0.00 62 1014.4
20260901172103 89 64 5.0 6.0 0.00 0.00 0.00 62 1014.5
20260901171602 89 238 5.0 8.0 0.00 0.00 0.00 63 1014.6
20260901171056 90 324 4.0 7.0 0.00 0.00 0.00 61 1014.7
20260901170555 89 12 3.0 8.0 0.00 0.00 0.00 62 1015.0
20260901170050 88 44 6.0 8.0 0.00 0.00 0.00 62 1014.8
20260901165550 88 315 6.0 8.0 0.00 0.00 0.00 63 1014.9
20260901165045 88 23 5.0 9.0 0.00 0.00 0.00 63 1015.1
20260901164541 88 19 8.0 11.0 0.00 0.00 0.00 64 1015.1
20260901164036 88 111 4.0 9.0 0.00 0.00 0.00 64 1015.1
20260901163531 88 22 4.0 11.0 0.00 0.00 0.00 64 1015.1
20260901163030 88 49 7.0 9.0 0.00 0.00 0.00 64 1014.8
20260901162531 87 38 6.0 14.0 0.00 0.00 0.00 65 1015.0
20260901162030 88 351 6.0 11.0 0.00 0.00 0.00 68 1015.0
20260901161529 88 122 3.0 4.0 0.00 0.00 0.00 68 1014.8
20260901161029 88 342 6.0 9.0 0.00 0.00 0.00 69 1014.8
20260901160525 87 93 2.0 4.0 0.00 0.00 0.00 69 1014.8
20260901160020 87 37 5.0 6.0 0.00 0.00 0.00 69 1014.7
20260901155519 87 351 7.0 10.0 0.00 0.00 0.00 69 1014.7
20260901155016 87 43 5.0 7.0 0.00 0.00 0.00 70 1014.6
20260901154515 87 342 7.0 10.0 0.00 0.00 0.00 70 1014.7
20260901154010 86 22 2.0 10.0 0.00 0.00 0.00 71 1014.7
20260901153504 87 289 4.0 8.0 0.00 0.00 0.00 70 1014.7
20260901152959 86 356 6.0 11.0 0.00 0.00 0.00 71 1014.6
20260901152458 86 299 4.0 8.0 0.00 0.00 0.00 71 1014.8
20260901151958 86 29 8.0 11.0 0.00 0.00 0.00 72 1014.7
20260901151453 86 21 6.0 7.0 0.00 0.00 0.00 73 1014.7
20260901150952 86 12 6.0 8.0 0.00 0.00 0.00 73 1014.6
20260901150450 86 318 6.0 9.0 0.00 0.00 0.00 73 1014.7
20260901145948 86 343 6.0 8.0 0.00 0.00 0.00 73 1014.7
20260901145443 85 81 6.0 8.0 0.00 0.00 0.00 74 1014.7
20260901144937 85 324 6.0 9.0 0.00 0.00 0.00 74 1014.6
20260901144432 86 330 5.0 7.0 0.00 0.00 0.00 74 1014.5
20260901143928 86 199 4.0 7.0 0.00 0.00 0.00 73 1014.7
20260901143424 86 72 2.0 3.0 0.00 0.00 0.00 73 1014.6
20260901142920 85 89 2.0 3.0 0.00 0.00 0.00 74 1014.8
20260901142420 85 17 4.0 6.0 0.00 0.00 0.00 74 1014.8
20260901141915 85 52 3.0 4.0 0.00 0.00 0.00 75 1015.0
20260901141410 85 12 6.0 8.0 0.00 0.00 0.00 75 1014.9
20260901140909 85 5 2.0 6.0 0.00 0.00 0.00 76 1014.9
20260901140407 84 333 6.0 8.0 0.00 0.00 0.00 77 1014.9
20260901135902 84 352 5.0 6.0 0.00 0.00 0.00 78 1014.8
20260901135357 84 307 3.0 4.0 0.00 0.00 0.00 78 1014.9
20260901134853 84 273 4.0 7.0 0.00 0.00 0.00 79 1014.8
20260901134349 83 31 4.0 6.0 0.00 0.00 0.00 80 1014.9
20260901133848 83 41 3.0 4.0 0.00 0.00 0.00 80 1015.1
20260901133348 83 1 4.0 6.0 0.00 0.00 0.00 81 1015.0
20260901132846 83 25 4.0 4.0 0.00 0.00 0.00 81 1014.8
20260901132341 83 56 3.0 7.0 0.00 0.00 0.00 81 1014.7
20260901131835 82 29 5.0 8.0 0.00 0.00 0.00 81 1014.8
20260901131334 82 36 3.0 8.0 0.00 0.00 0.00 82 1014.6
20260901130830 82 317 3.0 6.0 0.00 0.00 0.00 82 1014.6
20260901130324 82 114 2.0 4.0 0.00 0.00 0.00 82 1014.5
20260901125822 82 294 4.0 7.0 0.00 0.00 0.00 82 1014.4
20260901125322 82 131 2.0 4.0 0.00 0.00 0.00 82 1014.2
20260901124817 82 357 8.0 10.0 0.00 0.00 0.00 82 1014.2
20260901124313 82 17 6.0 10.0 0.00 0.00 0.00 82 1014.2
20260901123812 82 29 4.0 8.0 0.00 0.00 0.00 83 1014.2
20260901123307 82 11 9.0 10.0 0.00 0.00 0.00 83 1014.0
20260901122806 82 54 3.0 4.0 0.00 0.00 0.00 83 1014.0
20260901122300 82 53 4.0 7.0 0.00 0.00 0.00 82 1013.8
20260901121800 82 3 6.0 7.0 0.00 0.00 0.00 83 1013.8
20260901121255 82 46 4.0 9.0 0.00 0.00 0.00 83 1013.8
20260901120754 82 90 3.0 4.0 0.00 0.00 0.00 83 1013.9
20260901120249 82 44 4.0 6.0 0.00 0.00 0.00 83 1013.8
20260901115745 82 163 3.0 6.0 0.00 0.00 0.00 83 1013.7
20260901115240 82 95 1.0 4.0 0.00 0.00 0.00 83 1013.7
20260901114737 82 148 2.0 2.0 0.00 0.00 0.00 83 1013.6
20260901114232 82 99 1.0 3.0 0.00 0.00 0.00 84 1013.6
20260901113730 81 139 3.0 6.0 0.00 0.00 0.00 84 1013.7
20260901113226 81 322 2.0 6.0 0.00 0.00 0.00 84 1013.8
20260901112725 81 329 3.0 4.0 0.00 0.00 0.00 84 1013.6
20260901112220 81 323 4.0 4.0 0.00 0.00 0.00 84 1013.8
20260901111720 81 312 4.0 6.0 0.00 0.00 0.00 84 1013.7
20260901111220 81 302 3.0 4.0 0.00 0.00 0.00 84 1013.6
20260901110714 81 325 5.0 6.0 0.00 0.00 0.00 84 1013.7
20260901110209 81 326 3.0 4.0 0.00 0.00 0.00 84 1013.6
20260901105706 81 102 2.0 4.0 0.00 0.00 0.00 84 1013.5
20260901105205 81 265 3.0 4.0 0.00 0.00 0.00 84 1013.5
20260901104701 81 78 2.0 4.0 0.00 0.00 0.00 84 1013.7
20260901104156 81 351 5.0 6.0 0.00 0.00 0.00 84 1013.5
20260901103655 81 237 2.0 2.0 0.00 0.00 0.00 84 1013.5
20260901103151 82 190 2.0 3.0 0.00 0.00 0.00 84 1013.5
20260901102651 82 307 2.0 3.0 0.00 0.00 0.00 84 1013.4
20260901102150 82 353 4.0 4.0 0.00 0.00 0.00 83 1013.6
20260901101647 82 219 3.0 3.0 0.00 0.00 0.00 83 1013.4
20260901101146 82 324 5.0 6.0 0.00 0.00 0.00 83 1013.4
20260901100640 82 342 4.0 4.0 0.00 0.00 0.00 83 1013.6
20260901100136 82 260 2.0 3.0 0.00 0.00 0.00 83 1013.6
20260901095633 82 333 2.0 3.0 0.00 0.00 0.00 82 1013.5
20260901095131 82 223 2.0 3.0 0.00 0.00 0.00 82 1013.4
20260901094626 82 247 3.0 3.0 0.00 0.00 0.00 82 1013.4
20260901094121 82 278 2.0 3.0 0.00 0.00 0.00 82 1013.7
20260901093615 82 119 1.0 2.0 0.00 0.00 0.00 82 1013.8
20260901093115 82 110 2.0 2.0 0.00 0.00 0.00 82 1013.6
20260901092611 82 202 1.0 1.0 0.00 0.00 0.00 82 1013.6
20260901092107 82 243 2.0 3.0 0.00 0.00 0.00 82 1013.7
20260901091602 82 165 0.0 2.0 0.00 0.00 0.00 82 1013.6
20260901091058 82 164 1.0 2.0 0.00 0.00 0.00 82 1013.7
20260901090556 83 156 1.0 2.0 0.00 0.00 0.00 81 1013.7
20260901090053 83 280 2.0 3.0 0.00 0.00 0.00 81 1013.8
20260901085548 83 156 2.0 3.0 0.00 0.00 0.00 81 1013.7
20260901085044 83 282 2.0 3.0 0.00 0.00 0.00 81 1013.8
20260901084540 83 148 1.0 3.0 0.00 0.00 0.00 81 1013.7
20260901084037 83 253 3.0 4.0 0.00 0.00 0.00 80 1014.0
20260901083536 83 175 2.0 4.0 0.00 0.00 0.00 80 1013.6
20260901083034 83 264 2.0 3.0 0.00 0.00 0.00 79 1013.7
20260901082530 84 283 3.0 6.0 0.00 0.00 0.00 79 1013.6
20260901082025 84 258 4.0 4.0 0.00 0.00 0.00 78 1013.8
20260901081520 84 257 4.0 6.0 0.00 0.00 0.00 78 1013.7
20260901081015 84 220 2.0 6.0 0.00 0.00 0.00 78 1013.6
20260901080514 84 237 2.0 2.0 0.00 0.00 0.00 78 1013.8
20260901080013 84 243 3.0 3.0 0.00 0.00 0.00 79 1013.9
20260901075510 84 224 2.0 3.0 0.00 0.00 0.00 79 1013.9
20260901075009 84 168 0.0 1.0 0.00 0.00 0.00 78 1013.9
20260901074509 84 181 1.0 2.0 0.00 0.00 0.00 78 1014.1
20260901074004 84 193 2.0 2.0 0.00 0.00 0.00 78 1013.8
20260901073501 84 210 1.0 2.0 0.00 0.00 0.00 79 1013.9
20260901073001 84 166 1.0 1.0 0.00 0.00 0.00 78 1013.8
20260901072456 84 203 1.0 2.0 0.00 0.00 0.00 78 1014.0
20260901071951 84 209 2.0 2.0 0.00 0.00 0.00 78 1013.8
20260901071450 84 176 0.0 0.0 0.00 0.00 0.00 78 1013.9
20260901070949 84 178 0.0 0.0 0.00 0.00 0.00 78 1013.8
20260901070444 83 185 0.0 0.0 0.00 0.00 0.00 79 1014.0
20260901065943 83 170 0.0 0.0 0.00 0.00 0.00 79 1014.0
20260901065434 84 164 0.0 0.0 0.00 0.00 0.00 78 1014.0
20260901064928 84 167 0.0 0.0 0.00 0.00 0.00 78 1013.8
20260901064425 84 172 0.0 0.0 0.00 0.00 0.00 78 1014.0
20260901063922 84 172 0.0 0.0 0.00 0.00 0.00 78 1014.1
20260901063418 84 156 0.0 0.0 0.00 0.00 0.00 78 1014.1
20260901062914 84 170 0.0 1.0 0.00 0.00 0.00 78 1014.0
20260901062410 84 174 2.0 2.0 0.00 0.00 0.00 78 1014.0
20260901061905 84 181 0.0 0.0 0.00 0.00 0.00 77 1014.2
20260901061401 84 166 0.0 1.0 0.00 0.00 0.00 76 1014.1
20260901060855 84 139 0.0 2.0 0.00 0.00 0.00 76 1014.1
20260901060351 85 164 0.0 0.0 0.00 0.00 0.00 76 1014.2
20260901055850 85 148 1.0 3.0 0.00 0.00 0.00 76 1014.2
20260901055346 85 182 2.0 2.0 0.00 0.00 0.00 77 1014.1
20260901054843 85 145 1.0 2.0 0.00 0.00 0.00 77 1014.2
20260901054340 85 147 1.0 3.0 0.00 0.00 0.00 77 1014.1
20260901053836 85 163 2.0 3.0 0.00 0.00 0.00 77 1014.1
20260901053331 84 148 0.0 2.0 0.00 0.00 0.00 77 1014.1
20260901052826 84 164 0.0 0.0 0.00 0.00 0.00 77 1014.0
20260901052322 85 162 0.0 1.0 0.00 0.00 0.00 77 1014.1
20260901051820 85 179 2.0 3.0 0.00 0.00 0.00 77 1014.0
20260901051316 85 170 2.0 3.0 0.00 0.00 0.00 77 1014.0
20260901050810 85 141 3.0 3.0 0.00 0.00 0.00 77 1014.0
20260901050306 85 172 0.0 1.0 0.00 0.00 0.00 77 1014.0
20260901045801 85 161 0.0 2.0 0.00 0.00 0.00 77 1013.8
20260901045255 85 139 1.0 3.0 0.00 0.00 0.00 77 1013.6
20260901044751 85 111 2.0 3.0 0.00 0.00 0.00 76 1013.7
20260901044247 85 150 1.0 2.0 0.00 0.00 0.00 76 1013.9
20260901043743 85 143 1.0 1.0 0.00 0.00 0.00 76 1013.9
20260901043238 85 158 0.0 1.0 0.00 0.00 0.00 76 1013.6
20260901042732 85 144 0.0 0.0 0.00 0.00 0.00 75 1013.8
20260901042232 86 144 1.0 3.0 0.00 0.00 0.00 75 1013.9
20260901041728 86 197 3.0 3.0 0.00 0.00 0.00 75 1013.8
20260901041228 86 144 1.0 3.0 0.00 0.00 0.00 75 1013.9
20260901040723 86 150 2.0 3.0 0.00 0.00 0.00 75 1013.7
20260901040222 86 144 4.0 4.0 0.00 0.00 0.00 74 1013.7
20260901035720 86 181 4.0 4.0 0.00 0.00 0.00 74 1013.8
20260901035220 86 175 3.0 4.0 0.00 0.00 0.00 74 1013.7
20260901034719 86 188 3.0 6.0 0.00 0.00 0.00 74 1013.9
20260901034214 86 141 4.0 6.0 0.00 0.00 0.00 74 1013.7
20260901033714 86 156 3.0 4.0 0.00 0.00 0.00 74 1013.7
20260901033213 86 141 3.0 4.0 0.00 0.00 0.00 74 1013.6
20260901032712 86 147 3.0 6.0 0.00 0.00 0.00 73 1013.7
20260901032212 86 145 2.0 4.0 0.00 0.00 0.00 72 1013.7
20260901031708 86 136 4.0 7.0 0.00 0.00 0.00 72 1013.6
20260901031204 87 146 4.0 6.0 0.00 0.00 0.00 71 1013.5
20260901030659 87 177 2.0 4.0 0.00 0.00 0.00 70 1013.4
20260901030159 87 163 2.0 6.0 0.00 0.00 0.00 70 1013.4
20260901025653 87 141 3.0 4.0 0.00 0.00 0.00 69 1013.2
20260901025148 87 209 3.0 4.0 0.00 0.00 0.00 69 1013.1
20260901024648 87 194 2.0 3.0 0.00 0.00 0.00 68 1013.0
20260901024147 87 191 2.0 6.0 0.00 0.00 0.00 68 1013.1
20260901023646 87 190 3.0 4.0 0.00 0.00 0.00 68 1012.9
20260901023141 87 141 2.0 4.0 0.00 0.00 0.00 67 1012.9
20260901022636 87 163 1.0 3.0 0.00 0.00 0.00 67 1012.6
20260901022131 87 166 2.0 2.0 0.00 0.00 0.00 67 1012.7
20260901021627 87 150 2.0 4.0 0.00 0.00 0.00 67 1012.6
20260901021122 87 165 2.0 6.0 0.00 0.00 0.00 66 1012.7
20260901020618 88 139 3.0 4.0 0.00 0.00 0.00 66 1012.5
20260901020113 88 161 2.0 3.0 0.00 0.00 0.00 66 1012.5
20260901015614 88 140 4.0 4.0 0.00 0.00 0.00 66 1012.5
20260901015113 88 163 6.0 7.0 0.00 0.00 0.00 66 1012.5
20260901014608 88 150 3.0 4.0 0.00 0.00 0.00 66 1012.5
20260901014104 88 198 4.0 7.0 0.00 0.00 0.00 66 1012.5
20260901013600 88 168 2.0 3.0 0.00 0.00 0.00 66 1012.6
20260901013056 88 133 2.0 3.0 0.00 0.00 0.00 66 1012.2
20260901012555 88 161 0.0 3.0 0.00 0.00 0.00 66 1012.5
20260901012050 88 147 4.0 7.0 0.00 0.00 0.00 65 1012.3
20260901011547 88 151 3.0 3.0 0.00 0.00 0.00 66 1012.3
20260901011044 88 127 2.0 2.0 0.00 0.00 0.00 66 1012.6
20260901010540 88 130 1.0 4.0 0.00 0.00 0.00 65 1012.5
20260901010039 88 133 4.0 4.0 0.00 0.00 0.00 65 1012.3
20260901005534 89 156 4.0 7.0 0.00 0.00 0.00 64 1012.4
20260901005029 89 150 4.0 7.0 0.00 0.00 0.00 63 1012.5
20260901004529 89 140 2.0 3.0 0.00 0.00 0.00 63 1012.6
20260901004024 89 165 5.0 7.0 0.00 0.00 0.00 62 1012.5
20260901003519 90 134 5.0 6.0 0.00 0.00 0.00 61 1012.7
20260901003017 90 151 2.0 3.0 0.00 0.00 0.00 61 1012.5
20260901002517 90 128 3.0 4.0 0.00 0.00 0.00 60 1012.6
20260901002012 90 152 2.0 4.0 0.00 0.00 0.00 60 1012.6
20260901001507 90 134 2.0 4.0 0.00 0.00 0.00 60 1012.5
20260901001003 91 161 4.0 4.0 0.00 0.00 0.00 59 1012.6
20260901000502 91 149 4.0 6.0 0.00 0.00 0.00 59 1012.5
20260901000002 91 152 3.0 3.0 0.00 0.00 0.00 59 1012.4
20260831235457 91 165 2.0 4.0 0.00 0.00 0.00 59 1012.5
20260831234952 91 130 5.0 7.0 0.00 0.00 0.00 58 1012.4
20260831234447 91 122 2.0 3.0 0.00 0.00 0.00 58 1012.5
20260831233942 92 138 2.0 3.0 0.00 0.00 0.00 58 1012.6
20260831233437 91 137 2.0 4.0 0.00 0.00 0.00 59 1012.5